{"data":{"norad_id":45160,"epoch":"2026-05-25T03:56:09.401280Z","epoch_age_seconds":64349,"freshness":"FRESH","line1":"1 45160U 20008AF  26145.16399770  .00000626  00000+0  17570-2 0  9991","line2":"2 45160  87.8856  40.8556 0002354  81.5068 278.6326 13.10373227305337","mean_motion":13.10373227,"eccentricity":0.0002354,"inclination_deg":87.8856,"raan_deg":40.8556,"arg_perigee_deg":81.5068,"mean_anomaly_deg":278.6326,"bstar":0.001757,"rev_number":30533,"period_min":109.89235511907,"perigee_km":1219.9265602148,"apogee_km":1223.5045708027,"semimajor_km":7599.8525655088,"source":"CELESTRAK","updated_at":"2026-05-25T13:38:22.339514Z"}}